Year,Month,Day,Hour,Minute,Value (Times are PST for temperature in C)
2018,04,30,00,00,9.80
2018,04,30,00,01,9.80
2018,04,30,00,02,9.80
2018,04,30,00,03,9.80
2018,04,30,00,04,9.80
2018,04,30,00,05,9.80
2018,04,30,00,06,9.80
2018,04,30,00,07,9.80
2018,04,30,00,08,9.80
2018,04,30,00,09,9.80
2018,04,30,00,10,9.80
2018,04,30,00,11,9.80
2018,04,30,00,12,9.80
2018,04,30,00,13,9.80
2018,04,30,00,14,9.80
2018,04,30,00,15,9.80
2018,04,30,00,16,9.80
2018,04,30,00,17,9.80
2018,04,30,00,18,9.80
2018,04,30,00,19,9.80
2018,04,30,00,20,9.80
2018,04,30,00,21,9.80
2018,04,30,00,22,9.80
2018,04,30,00,23,9.80
2018,04,30,00,24,9.80
2018,04,30,00,25,9.80
2018,04,30,00,26,9.80
2018,04,30,00,27,9.70
2018,04,30,00,28,9.70
2018,04,30,00,29,9.70
2018,04,30,00,30,9.70
2018,04,30,00,31,9.70
2018,04,30,00,32,9.70
2018,04,30,00,33,9.70
2018,04,30,00,34,9.70
2018,04,30,00,35,9.70
2018,04,30,00,36,9.70
2018,04,30,00,37,9.70
2018,04,30,00,38,9.70
2018,04,30,00,39,9.70
2018,04,30,00,40,9.70
2018,04,30,00,41,9.70
2018,04,30,00,42,9.70
2018,04,30,00,43,9.70
2018,04,30,00,44,9.70
2018,04,30,00,45,9.70
2018,04,30,00,46,9.70
2018,04,30,00,47,9.70
2018,04,30,00,48,9.70
2018,04,30,00,49,9.70
2018,04,30,00,50,9.70
2018,04,30,00,51,9.70
2018,04,30,00,52,9.70
2018,04,30,00,53,9.70
2018,04,30,00,54,9.70
2018,04,30,00,55,9.70
2018,04,30,00,56,9.60
2018,04,30,00,57,9.60
2018,04,30,00,58,9.60
2018,04,30,00,59,9.60
2018,04,30,01,00,9.60
2018,04,30,01,01,9.60
2018,04,30,01,02,9.60
2018,04,30,01,03,9.60
2018,04,30,01,04,9.60
2018,04,30,01,05,9.60
2018,04,30,01,06,9.60
2018,04,30,01,07,9.60
2018,04,30,01,08,9.60
2018,04,30,01,09,9.60
2018,04,30,01,10,9.60
2018,04,30,01,11,9.60
2018,04,30,01,12,9.60
2018,04,30,01,13,9.60
2018,04,30,01,14,9.60
2018,04,30,01,15,9.60
2018,04,30,01,16,9.60
2018,04,30,01,17,9.60
2018,04,30,01,18,9.60
2018,04,30,01,19,9.60
2018,04,30,01,20,9.60
2018,04,30,01,21,9.60
2018,04,30,01,22,9.60
2018,04,30,01,23,9.50
2018,04,30,01,24,9.60
2018,04,30,01,25,9.60
2018,04,30,01,26,9.50
2018,04,30,01,27,9.50
2018,04,30,01,28,9.50
2018,04,30,01,29,9.50
2018,04,30,01,30,9.50
2018,04,30,01,31,9.50
2018,04,30,01,32,9.50
2018,04,30,01,33,9.50
2018,04,30,01,34,9.50
2018,04,30,01,35,9.50
2018,04,30,01,36,9.50
2018,04,30,01,37,9.50
2018,04,30,01,38,9.50
2018,04,30,01,39,9.50
2018,04,30,01,40,9.50
2018,04,30,01,41,9.50
2018,04,30,01,42,9.50
2018,04,30,01,43,9.50
2018,04,30,01,44,9.50
2018,04,30,01,45,9.50
2018,04,30,01,46,9.50
2018,04,30,01,47,9.50
2018,04,30,01,48,9.50
2018,04,30,01,49,9.50
2018,04,30,01,50,9.50
2018,04,30,01,51,9.50
2018,04,30,01,52,9.50
2018,04,30,01,53,9.50
2018,04,30,01,54,9.50
2018,04,30,01,55,9.50
2018,04,30,01,56,9.50
2018,04,30,01,57,9.50
2018,04,30,01,58,9.40
2018,04,30,01,59,9.50
2018,04,30,02,00,9.40
2018,04,30,02,01,9.40
2018,04,30,02,02,9.40
2018,04,30,02,03,9.40
2018,04,30,02,04,9.40
2018,04,30,02,05,9.40
2018,04,30,02,06,9.40
2018,04,30,02,07,9.40
2018,04,30,02,08,9.40
2018,04,30,02,09,9.40
2018,04,30,02,10,9.40
2018,04,30,02,11,9.40
2018,04,30,02,12,9.40
2018,04,30,02,13,9.40
2018,04,30,02,14,9.40
2018,04,30,02,15,9.40
2018,04,30,02,16,9.40
2018,04,30,02,17,9.40
2018,04,30,02,18,9.40
2018,04,30,02,19,9.40
2018,04,30,02,20,9.40
2018,04,30,02,21,9.40
2018,04,30,02,22,9.40
2018,04,30,02,23,9.40
2018,04,30,02,24,9.40
2018,04,30,02,25,9.40
2018,04,30,02,26,9.40
2018,04,30,02,27,9.40
2018,04,30,02,28,9.40
2018,04,30,02,29,9.40
2018,04,30,02,30,9.50
2018,04,30,02,31,9.40
2018,04,30,02,32,9.50
2018,04,30,02,33,9.50
2018,04,30,02,34,9.50
2018,04,30,02,35,9.50
2018,04,30,02,36,9.40
2018,04,30,02,37,9.40
2018,04,30,02,38,9.40
2018,04,30,02,39,9.40
2018,04,30,02,40,9.40
2018,04,30,02,41,9.40
2018,04,30,02,42,9.50
2018,04,30,02,43,9.40
2018,04,30,02,44,9.40
2018,04,30,02,45,9.40
2018,04,30,02,46,9.40
2018,04,30,02,47,9.40
2018,04,30,02,48,9.40
2018,04,30,02,49,9.40
2018,04,30,02,50,9.40
2018,04,30,02,51,9.40
2018,04,30,02,52,9.40
2018,04,30,02,53,9.40
2018,04,30,02,54,9.40
2018,04,30,02,55,9.40
2018,04,30,02,56,9.40
2018,04,30,02,57,9.40
2018,04,30,02,58,9.40
2018,04,30,02,59,9.40
2018,04,30,03,00,9.40
2018,04,30,03,01,9.40
2018,04,30,03,02,9.40
2018,04,30,03,03,9.40
2018,04,30,03,04,9.40
2018,04,30,03,05,9.40
2018,04,30,03,06,9.40
2018,04,30,03,07,9.40
2018,04,30,03,08,9.40
2018,04,30,03,09,9.40
2018,04,30,03,10,9.40
2018,04,30,03,11,9.40
2018,04,30,03,12,9.40
2018,04,30,03,13,9.40
2018,04,30,03,14,9.40
2018,04,30,03,15,9.40
2018,04,30,03,16,9.40
2018,04,30,03,17,9.40
2018,04,30,03,18,9.40
2018,04,30,03,19,9.40
2018,04,30,03,20,9.40
2018,04,30,03,21,9.40
2018,04,30,03,22,9.40
2018,04,30,03,23,9.40
2018,04,30,03,24,9.40
2018,04,30,03,25,9.40
2018,04,30,03,26,9.40
2018,04,30,03,27,9.40
2018,04,30,03,28,9.50
2018,04,30,03,29,9.50
2018,04,30,03,30,9.50
2018,04,30,03,31,9.50
2018,04,30,03,32,9.50
2018,04,30,03,33,9.50
2018,04,30,03,34,9.50
2018,04,30,03,35,9.50
2018,04,30,03,36,9.50
2018,04,30,03,37,9.50
2018,04,30,03,38,9.50
2018,04,30,03,39,9.50
2018,04,30,03,40,9.60
2018,04,30,03,41,9.60
2018,04,30,03,42,9.60
2018,04,30,03,43,9.60
2018,04,30,03,44,9.60
2018,04,30,03,45,9.60
2018,04,30,03,46,9.60
2018,04,30,03,47,9.60
2018,04,30,03,48,9.60
2018,04,30,03,49,9.60
2018,04,30,03,50,9.60
2018,04,30,03,51,9.60
2018,04,30,03,52,9.60
2018,04,30,03,53,9.60
2018,04,30,03,54,9.60
2018,04,30,03,55,9.60
2018,04,30,03,56,9.60
2018,04,30,03,57,9.60
2018,04,30,03,58,9.60
2018,04,30,03,59,9.60
2018,04,30,04,00,9.60
2018,04,30,04,01,9.60
2018,04,30,04,02,9.60
2018,04,30,04,03,9.60
2018,04,30,04,04,9.60
2018,04,30,04,05,9.60
2018,04,30,04,06,9.60
2018,04,30,04,07,9.60
2018,04,30,04,08,9.60
2018,04,30,04,09,9.60
2018,04,30,04,10,9.60
2018,04,30,04,11,9.60
2018,04,30,04,12,9.60
2018,04,30,04,13,9.60
2018,04,30,04,14,9.60
2018,04,30,04,15,9.60
2018,04,30,04,16,9.60
2018,04,30,04,17,9.60
2018,04,30,04,18,9.60
2018,04,30,04,19,9.60
2018,04,30,04,20,9.60
2018,04,30,04,21,9.60
2018,04,30,04,22,9.60
2018,04,30,04,23,9.60
2018,04,30,04,24,9.60
2018,04,30,04,25,9.60
2018,04,30,04,26,9.60
2018,04,30,04,27,9.60
2018,04,30,04,28,9.60
2018,04,30,04,29,9.60
2018,04,30,04,30,9.60
2018,04,30,04,31,9.60
2018,04,30,04,32,9.60
2018,04,30,04,33,9.60
2018,04,30,04,34,9.60
2018,04,30,04,35,9.60
2018,04,30,04,36,9.60
2018,04,30,04,37,9.60
2018,04,30,04,38,9.60
2018,04,30,04,39,9.60
2018,04,30,04,40,9.60
2018,04,30,04,41,9.60
2018,04,30,04,42,9.60
2018,04,30,04,43,9.60
2018,04,30,04,44,9.60
2018,04,30,04,45,9.60
2018,04,30,04,46,9.60
2018,04,30,04,47,9.60
2018,04,30,04,48,9.60
2018,04,30,04,49,9.60
2018,04,30,04,50,9.60
2018,04,30,04,51,9.60
2018,04,30,04,52,9.60
2018,04,30,04,53,9.60
2018,04,30,04,54,9.60
2018,04,30,04,55,9.60
2018,04,30,04,56,9.60
2018,04,30,04,57,9.60
2018,04,30,04,58,9.60
2018,04,30,04,59,9.60
2018,04,30,05,00,9.50
2018,04,30,05,01,9.40
2018,04,30,05,02,9.40
2018,04,30,05,03,9.40
2018,04,30,05,04,9.40
2018,04,30,05,05,9.40
2018,04,30,05,06,9.40
2018,04,30,05,07,9.40
2018,04,30,05,08,9.40
2018,04,30,05,09,9.40
2018,04,30,05,10,9.40
2018,04,30,06,51,9.40
2018,04,30,06,52,9.40
2018,04,30,06,53,9.40
2018,04,30,06,54,9.40
2018,04,30,06,55,9.40
2018,04,30,06,56,9.40
2018,04,30,06,57,9.40
2018,04,30,06,58,9.40
2018,04,30,06,59,9.40
2018,04,30,07,00,9.40
2018,04,30,07,01,9.40
2018,04,30,07,02,9.40
2018,04,30,07,03,9.50
2018,04,30,07,04,9.50
2018,04,30,07,05,9.50
2018,04,30,07,06,9.50
2018,04,30,07,07,9.50
2018,04,30,07,08,9.50
2018,04,30,07,09,9.50
2018,04,30,07,10,9.50
2018,04,30,07,11,9.60
2018,04,30,07,12,9.60
2018,04,30,07,13,9.60
2018,04,30,07,14,9.60
2018,04,30,07,15,9.60
2018,04,30,07,16,9.60
2018,04,30,07,17,9.60
2018,04,30,07,18,9.60
2018,04,30,07,19,9.70
2018,04,30,07,20,9.70
2018,04,30,07,21,9.70
2018,04,30,07,22,9.70
2018,04,30,07,23,9.70
2018,04,30,07,24,9.70
2018,04,30,07,25,9.80
2018,04,30,07,26,9.80
2018,04,30,07,27,9.80
2018,04,30,07,28,9.80
2018,04,30,07,29,9.80
2018,04,30,07,30,9.80
2018,04,30,07,31,9.80
2018,04,30,07,32,9.80
2018,04,30,07,33,9.80
2018,04,30,07,34,9.80
2018,04,30,07,35,9.80
2018,04,30,07,36,9.80
2018,04,30,07,37,9.80
2018,04,30,07,38,9.90
2018,04,30,07,39,9.90
2018,04,30,07,40,9.90
2018,04,30,07,41,9.90
2018,04,30,07,42,9.90
2018,04,30,07,43,9.90
2018,04,30,07,44,9.90
2018,04,30,07,45,9.90
2018,04,30,07,46,9.90
2018,04,30,07,47,9.90
2018,04,30,07,48,9.90
2018,04,30,07,49,9.90
2018,04,30,07,50,9.90
2018,04,30,07,51,10.00
2018,04,30,07,52,10.00
2018,04,30,07,53,10.00
2018,04,30,07,54,10.00
2018,04,30,07,55,10.00
2018,04,30,07,56,10.00
2018,04,30,07,57,10.00
2018,04,30,07,58,10.00
2018,04,30,07,59,10.00
2018,04,30,08,00,10.00
2018,04,30,08,01,10.00
2018,04,30,08,02,10.00
2018,04,30,08,03,10.00
2018,04,30,08,04,10.00
2018,04,30,08,05,10.00
2018,04,30,08,06,10.00
2018,04,30,08,07,10.00
2018,04,30,08,08,10.00
2018,04,30,08,09,10.00
2018,04,30,08,10,10.00
2018,04,30,08,11,10.00
2018,04,30,08,12,9.90
2018,04,30,08,13,9.90
2018,04,30,08,14,9.90
2018,04,30,08,15,9.90
2018,04,30,08,16,9.90
2018,04,30,08,17,9.90
2018,04,30,08,18,9.90
2018,04,30,08,19,9.90
2018,04,30,08,20,9.90
2018,04,30,08,21,9.90
2018,04,30,08,22,9.90
2018,04,30,08,23,9.90
2018,04,30,08,24,9.90
2018,04,30,08,25,9.90
2018,04,30,08,26,9.90
2018,04,30,08,27,10.00
2018,04,30,08,28,10.00
2018,04,30,08,29,10.00
2018,04,30,08,30,10.00
2018,04,30,08,31,10.00
2018,04,30,08,32,10.00
2018,04,30,08,33,10.00
2018,04,30,08,34,9.90
2018,04,30,08,35,9.90
2018,04,30,08,36,10.00
2018,04,30,08,37,10.00
2018,04,30,08,38,10.00
2018,04,30,08,39,10.00
2018,04,30,08,40,10.00
2018,04,30,08,41,10.10
2018,04,30,08,42,10.10
2018,04,30,08,43,10.10
2018,04,30,08,44,10.20
2018,04,30,08,45,10.20
2018,04,30,08,46,10.20
2018,04,30,08,47,10.30
2018,04,30,08,48,10.30
2018,04,30,08,49,10.30
2018,04,30,08,50,10.40
2018,04,30,08,51,10.50
2018,04,30,08,52,10.50
2018,04,30,08,53,10.60
2018,04,30,08,54,10.60
2018,04,30,08,55,10.70
2018,04,30,08,56,10.80
2018,04,30,08,57,10.80
2018,04,30,08,58,10.80
2018,04,30,08,59,10.80
2018,04,30,09,00,10.90
2018,04,30,09,01,10.90
2018,04,30,09,02,10.90
2018,04,30,09,03,10.90
2018,04,30,09,04,10.90
2018,04,30,09,05,10.90
2018,04,30,09,06,10.90
2018,04,30,09,07,11.00
2018,04,30,09,08,10.90
2018,04,30,09,09,10.90
2018,04,30,09,10,10.90
2018,04,30,09,11,10.90
2018,04,30,09,12,10.90
2018,04,30,09,13,10.90
2018,04,30,09,14,10.90
2018,04,30,09,15,10.90
2018,04,30,09,16,10.90
2018,04,30,09,17,10.90
2018,04,30,09,18,10.90
2018,04,30,09,19,10.90
2018,04,30,09,20,10.80
2018,04,30,09,21,10.80
2018,04,30,09,22,10.80
2018,04,30,09,23,10.80
2018,04,30,09,24,10.80
2018,04,30,09,25,10.80
2018,04,30,09,26,10.80
2018,04,30,09,27,10.80
2018,04,30,09,28,10.80
2018,04,30,09,29,10.80
2018,04,30,09,30,10.80
2018,04,30,09,31,10.80
2018,04,30,09,32,10.80
2018,04,30,09,33,10.80
2018,04,30,09,34,10.90
2018,04,30,09,35,10.90
2018,04,30,09,36,10.90
2018,04,30,09,37,10.90
2018,04,30,09,38,11.00
2018,04,30,09,39,11.00
2018,04,30,09,40,11.00
2018,04,30,09,41,11.10
2018,04,30,09,42,11.10
2018,04,30,09,43,11.10
2018,04,30,09,44,11.10
2018,04,30,09,45,11.00
2018,04,30,09,46,11.00
2018,04,30,09,47,11.00
2018,04,30,09,48,11.00
2018,04,30,09,49,11.00
2018,04,30,09,50,11.10
2018,04,30,09,51,11.10
2018,04,30,09,52,11.10
2018,04,30,09,53,11.20
2018,04,30,09,54,11.20
2018,04,30,09,55,11.30
2018,04,30,09,56,11.30
2018,04,30,09,57,11.30
2018,04,30,09,58,11.30
2018,04,30,09,59,11.30
2018,04,30,10,00,11.30
2018,04,30,10,01,11.30
2018,04,30,10,02,11.30
2018,04,30,10,03,11.30
2018,04,30,10,04,11.30
2018,04,30,10,05,11.20
2018,04,30,10,06,11.20
2018,04,30,10,07,11.20
2018,04,30,10,08,11.20
2018,04,30,10,09,11.30
2018,04,30,10,10,11.30
2018,04,30,10,11,11.40
2018,04,30,10,12,11.40
2018,04,30,10,13,11.40
2018,04,30,10,14,11.40
2018,04,30,10,15,11.40
2018,04,30,10,16,11.40
2018,04,30,10,17,11.40
2018,04,30,10,18,11.40
2018,04,30,10,19,11.40
2018,04,30,10,20,11.50
2018,04,30,10,21,11.50
2018,04,30,10,22,11.60
2018,04,30,10,23,11.60
2018,04,30,10,24,11.70
2018,04,30,10,25,11.70
2018,04,30,10,26,11.80
2018,04,30,10,27,11.80
2018,04,30,10,28,11.80
2018,04,30,10,29,11.80
2018,04,30,10,30,11.80
2018,04,30,10,31,11.80
2018,04,30,10,32,11.80
2018,04,30,10,33,11.80
2018,04,30,10,34,11.70
2018,04,30,10,35,11.70
2018,04,30,10,36,11.80
2018,04,30,10,37,11.80
2018,04,30,10,38,11.80
2018,04,30,10,39,11.80
2018,04,30,10,40,11.80
2018,04,30,10,41,11.80
2018,04,30,10,42,11.80
2018,04,30,10,43,11.80
2018,04,30,10,44,11.80
2018,04,30,10,45,11.80
2018,04,30,10,46,11.80
2018,04,30,10,47,11.80
2018,04,30,10,48,11.80
2018,04,30,10,49,11.80
2018,04,30,10,50,11.80
2018,04,30,10,51,11.80
2018,04,30,10,52,11.80
2018,04,30,10,53,11.80
2018,04,30,10,54,11.80
2018,04,30,10,55,11.80
2018,04,30,10,56,11.80
2018,04,30,10,57,11.80
2018,04,30,10,58,11.70
2018,04,30,10,59,11.70
2018,04,30,11,00,11.70
2018,04,30,11,01,11.80
2018,04,30,11,02,11.80
2018,04,30,11,03,11.80
2018,04,30,11,04,11.80
2018,04,30,11,05,11.80
2018,04,30,11,06,11.90
2018,04,30,11,07,11.90
2018,04,30,11,08,11.90
2018,04,30,11,09,11.90
2018,04,30,11,10,11.90
2018,04,30,11,11,11.90
2018,04,30,11,12,12.00
2018,04,30,11,13,12.00
2018,04,30,11,14,12.00
2018,04,30,11,15,12.10
2018,04,30,11,16,12.10
2018,04,30,11,17,12.10
2018,04,30,11,18,12.00
2018,04,30,11,19,11.90
2018,04,30,11,20,11.90
2018,04,30,11,21,11.90
2018,04,30,11,22,11.80
2018,04,30,11,23,11.80
2018,04,30,11,24,11.80
2018,04,30,11,25,11.80
2018,04,30,11,26,11.90
2018,04,30,11,27,12.00
2018,04,30,11,28,12.10
2018,04,30,11,29,12.10
2018,04,30,11,30,12.20
2018,04,30,11,31,12.20
2018,04,30,11,32,12.20
2018,04,30,11,33,12.20
2018,04,30,11,34,12.20
2018,04,30,11,35,12.20
2018,04,30,11,36,12.20
2018,04,30,11,37,12.20
2018,04,30,11,38,12.30
2018,04,30,11,39,12.30
2018,04,30,11,40,12.20
2018,04,30,11,41,12.10
2018,04,30,11,42,12.10
2018,04,30,11,43,12.10
2018,04,30,11,44,12.10
2018,04,30,11,45,12.00
2018,04,30,11,46,12.00
2018,04,30,11,47,12.10
2018,04,30,11,48,12.10
2018,04,30,11,49,12.10
2018,04,30,11,50,12.10
2018,04,30,11,51,12.20
2018,04,30,11,52,12.30
2018,04,30,11,53,12.30
2018,04,30,11,54,12.40
2018,04,30,11,55,12.30
2018,04,30,11,56,12.30
2018,04,30,11,57,12.30
2018,04,30,11,58,12.30
2018,04,30,11,59,12.30
2018,04,30,12,00,12.30
2018,04,30,12,01,12.30
2018,04,30,12,02,12.30
2018,04,30,12,03,12.30
2018,04,30,12,04,12.40
2018,04,30,12,05,12.40
2018,04,30,12,06,12.50
2018,04,30,12,07,12.50
2018,04,30,12,08,12.60
2018,04,30,12,09,12.60
2018,04,30,12,10,12.70
2018,04,30,12,11,12.80
2018,04,30,12,12,12.80
2018,04,30,12,13,12.80
2018,04,30,12,14,12.80
2018,04,30,12,15,12.80
2018,04,30,12,16,12.80
2018,04,30,12,17,12.80
2018,04,30,12,18,12.70
2018,04,30,12,19,12.70
2018,04,30,12,20,12.80
2018,04,30,12,21,12.80
2018,04,30,12,22,12.80
2018,04,30,12,23,12.80
2018,04,30,12,24,12.90
2018,04,30,12,25,12.90
2018,04,30,12,26,12.90
2018,04,30,12,27,13.00
2018,04,30,12,28,13.00
2018,04,30,12,29,13.00
2018,04,30,12,30,13.00
2018,04,30,12,31,13.00
2018,04,30,12,32,13.00
2018,04,30,12,33,13.00
2018,04,30,12,34,13.00
2018,04,30,12,35,13.10
2018,04,30,12,36,13.10
2018,04,30,12,37,13.10
2018,04,30,12,38,13.20
2018,04,30,12,39,13.10
2018,04,30,12,40,13.10
2018,04,30,12,41,13.10
2018,04,30,12,42,13.10
2018,04,30,12,43,13.20
2018,04,30,12,44,13.20
2018,04,30,12,45,13.10
2018,04,30,12,46,13.10
2018,04,30,12,47,13.10
2018,04,30,12,48,13.10
2018,04,30,12,49,13.00
2018,04,30,12,50,13.10
2018,04,30,12,51,13.10
2018,04,30,12,52,13.10
2018,04,30,12,53,13.20
2018,04,30,12,54,13.20
2018,04,30,12,55,13.30
2018,04,30,12,56,13.30
2018,04,30,12,57,13.30
2018,04,30,12,58,13.30
2018,04,30,12,59,13.30
2018,04,30,13,00,13.40
2018,04,30,13,01,13.40
2018,04,30,13,02,13.50
2018,04,30,13,03,13.60
2018,04,30,13,04,13.60
2018,04,30,13,05,13.60
2018,04,30,13,06,13.50
2018,04,30,13,07,13.50
2018,04,30,13,08,13.50
2018,04,30,13,09,13.50
2018,04,30,13,10,13.50
2018,04,30,13,11,13.50
2018,04,30,13,12,13.50
2018,04,30,13,13,13.50
2018,04,30,13,14,13.50
2018,04,30,13,15,13.50
2018,04,30,13,16,13.60
2018,04,30,13,17,13.60
2018,04,30,13,18,13.60
2018,04,30,13,19,13.60
2018,04,30,13,20,13.60
2018,04,30,13,21,13.60
2018,04,30,13,22,13.70
2018,04,30,13,23,13.70
2018,04,30,13,24,13.70
2018,04,30,13,25,13.70
2018,04,30,13,26,13.70
2018,04,30,13,27,13.70
2018,04,30,13,28,13.80
2018,04,30,13,29,13.90
2018,04,30,13,30,13.90
2018,04,30,13,31,14.00
2018,04,30,13,32,14.10
2018,04,30,13,33,14.10
2018,04,30,13,34,14.20
2018,04,30,13,35,14.30
2018,04,30,13,36,14.30
2018,04,30,13,37,14.30
2018,04,30,13,38,14.30
2018,04,30,13,39,14.30
2018,04,30,13,40,14.30
2018,04,30,13,41,14.30
2018,04,30,13,42,14.30
2018,04,30,13,43,14.30
2018,04,30,13,44,14.40
2018,04,30,13,45,14.50
2018,04,30,13,46,14.50
2018,04,30,13,47,14.50
2018,04,30,13,48,14.50
2018,04,30,13,49,14.50
2018,04,30,13,50,14.60
2018,04,30,13,51,14.50
2018,04,30,13,52,14.50
2018,04,30,13,53,14.40
2018,04,30,13,54,14.40
2018,04,30,13,55,14.40
2018,04,30,13,56,14.40
2018,04,30,13,57,14.40
2018,04,30,13,58,14.40
2018,04,30,13,59,14.40
2018,04,30,14,00,14.50
2018,04,30,14,01,14.50
2018,04,30,14,02,14.60
2018,04,30,14,03,14.70
2018,04,30,14,04,14.70
2018,04,30,14,05,14.80
2018,04,30,14,06,14.90
2018,04,30,14,07,14.90
2018,04,30,14,08,15.10
2018,04,30,14,09,15.10
2018,04,30,14,10,15.00
2018,04,30,14,11,15.00
2018,04,30,14,12,15.00
2018,04,30,14,13,14.90
2018,04,30,14,14,14.90
2018,04,30,14,15,15.00
2018,04,30,14,16,15.10
2018,04,30,14,17,15.10
2018,04,30,14,18,15.20
2018,04,30,14,19,15.20
2018,04,30,14,20,15.20
2018,04,30,14,21,15.30
2018,04,30,14,22,15.40
2018,04,30,14,23,15.40
2018,04,30,14,24,15.40
2018,04,30,14,25,15.50
2018,04,30,14,26,15.50
2018,04,30,14,27,15.60
2018,04,30,14,28,15.60
2018,04,30,14,29,15.60
2018,04,30,14,30,15.60
2018,04,30,14,31,15.60
2018,04,30,14,32,15.60
2018,04,30,14,33,15.60
2018,04,30,14,34,15.60
2018,04,30,14,35,15.60
2018,04,30,14,36,15.70
2018,04,30,14,37,15.70
2018,04,30,14,38,15.70
2018,04,30,14,39,15.80
2018,04,30,14,40,15.80
2018,04,30,14,41,15.80
2018,04,30,14,42,15.80
2018,04,30,14,43,15.80
2018,04,30,14,44,15.80
2018,04,30,14,45,15.90
2018,04,30,14,46,15.90
2018,04,30,14,47,15.90
2018,04,30,14,48,15.90
2018,04,30,14,49,16.00
2018,04,30,14,50,16.00
2018,04,30,14,51,16.10
2018,04,30,14,52,16.10
2018,04,30,14,53,16.10
2018,04,30,14,54,16.10
2018,04,30,14,55,16.20
2018,04,30,14,56,16.20
2018,04,30,14,57,16.30
2018,04,30,14,58,16.40
2018,04,30,14,59,16.50
2018,04,30,15,00,16.60
2018,04,30,15,01,16.60
2018,04,30,15,02,16.60
2018,04,30,15,03,16.60
2018,04,30,15,04,16.60
2018,04,30,15,05,16.60
2018,04,30,15,06,16.70
2018,04,30,15,07,16.70
2018,04,30,15,08,16.80
2018,04,30,15,09,16.80
2018,04,30,15,10,16.90
2018,04,30,15,11,16.90
2018,04,30,15,12,17.00
2018,04,30,15,13,17.10
2018,04,30,15,14,17.20
2018,04,30,15,15,17.20
2018,04,30,15,16,17.30
2018,04,30,15,17,17.30
2018,04,30,15,18,17.40
2018,04,30,15,19,17.40
2018,04,30,15,20,17.40
2018,04,30,15,21,17.40
2018,04,30,15,22,17.40
2018,04,30,15,23,17.40
2018,04,30,15,24,17.40
2018,04,30,15,25,17.50
2018,04,30,15,26,17.50
2018,04,30,15,27,17.50
2018,04,30,15,28,17.50
2018,04,30,15,29,17.50
2018,04,30,15,30,17.50
2018,04,30,15,31,17.50
2018,04,30,15,32,17.50
2018,04,30,15,33,17.40
2018,04,30,15,34,17.40
2018,04,30,15,35,17.40
2018,04,30,15,36,17.40
2018,04,30,15,37,17.40
2018,04,30,15,38,17.40
2018,04,30,15,39,17.40
2018,04,30,15,40,17.30
2018,04,30,15,41,17.30
2018,04,30,15,42,17.30
2018,04,30,15,43,17.30
2018,04,30,15,44,17.30
2018,04,30,15,45,17.20
2018,04,30,15,46,17.10
2018,04,30,15,47,17.10
2018,04,30,15,48,17.10
2018,04,30,15,49,17.20
2018,04,30,15,50,17.20
2018,04,30,15,51,17.30
2018,04,30,15,52,17.30
2018,04,30,15,53,17.40
2018,04,30,15,54,17.40
2018,04,30,15,55,17.40
2018,04,30,15,56,17.40
2018,04,30,15,57,17.50
2018,04,30,15,58,17.50
2018,04,30,15,59,17.50
2018,04,30,16,00,17.50
2018,04,30,16,01,17.40
2018,04,30,16,02,17.40
2018,04,30,16,03,17.30
2018,04,30,16,04,17.20
2018,04,30,16,05,17.10
2018,04,30,16,06,17.10
2018,04,30,16,07,17.10
2018,04,30,16,08,17.10
2018,04,30,16,09,17.20
2018,04,30,16,10,17.20
2018,04,30,16,11,17.30
2018,04,30,16,12,17.40
2018,04,30,16,13,17.50
2018,04,30,16,14,17.60
2018,04,30,16,15,17.70
2018,04,30,16,16,17.60
2018,04,30,16,17,17.40
2018,04,30,16,18,17.30
2018,04,30,16,19,17.20
2018,04,30,16,20,17.20
2018,04,30,16,21,17.10
2018,04,30,16,22,16.90
2018,04,30,16,23,16.80
2018,04,30,16,24,16.70
2018,04,30,16,25,16.60
2018,04,30,16,26,16.50
2018,04,30,16,27,16.40
2018,04,30,16,28,16.40
2018,04,30,16,29,16.40
2018,04,30,16,30,16.40
2018,04,30,16,31,16.40
2018,04,30,16,32,16.40
2018,04,30,16,33,16.30
2018,04,30,16,34,16.20
2018,04,30,16,35,16.20
2018,04,30,16,36,16.20
2018,04,30,16,37,16.10
2018,04,30,16,38,16.10
2018,04,30,16,39,16.10
2018,04,30,16,40,16.10
2018,04,30,16,41,16.00
2018,04,30,16,42,16.00
2018,04,30,16,43,15.90
2018,04,30,16,44,15.90
2018,04,30,16,45,15.90
2018,04,30,16,46,16.00
2018,04,30,16,47,16.00
2018,04,30,16,48,16.00
2018,04,30,16,49,16.00
2018,04,30,16,50,16.00
2018,04,30,16,51,16.00
2018,04,30,16,52,16.00
2018,04,30,16,53,16.00
2018,04,30,16,54,16.00
2018,04,30,16,55,16.00
2018,04,30,16,56,15.90
2018,04,30,16,57,15.90
2018,04,30,16,58,15.90
2018,04,30,16,59,15.90
2018,04,30,17,00,15.90
2018,04,30,17,01,16.00
2018,04,30,17,02,16.00
2018,04,30,17,03,16.00
2018,04,30,17,04,15.90
2018,04,30,17,05,15.90
2018,04,30,17,06,15.90
2018,04,30,17,07,15.90
2018,04,30,17,08,15.80
2018,04,30,17,09,15.80
2018,04,30,17,10,15.80
2018,04,30,17,11,15.80
2018,04,30,17,12,15.90
2018,04,30,17,13,15.90
2018,04,30,17,14,15.90
2018,04,30,17,15,16.00
2018,04,30,17,16,16.00
2018,04,30,17,17,15.90
2018,04,30,17,18,15.90
2018,04,30,17,19,15.90
2018,04,30,17,20,15.90
2018,04,30,17,21,15.90
2018,04,30,17,22,15.90
2018,04,30,17,23,15.90
2018,04,30,17,24,15.90
2018,04,30,17,25,16.00
2018,04,30,17,26,16.00
2018,04,30,17,27,16.00
2018,04,30,17,28,16.00
2018,04,30,17,29,16.00
2018,04,30,17,30,16.10
2018,04,30,17,31,16.10
2018,04,30,17,32,16.10
2018,04,30,17,33,16.10
2018,04,30,17,34,16.10
2018,04,30,17,35,16.10
2018,04,30,17,36,16.10
2018,04,30,17,37,16.10
2018,04,30,17,38,16.10
2018,04,30,17,39,16.10
2018,04,30,17,40,16.10
2018,04,30,17,41,16.10
2018,04,30,17,42,16.10
2018,04,30,17,43,16.10
2018,04,30,17,44,16.10
2018,04,30,17,45,16.20
2018,04,30,17,46,16.20
2018,04,30,17,47,16.20
2018,04,30,17,48,16.20
2018,04,30,17,49,16.20
2018,04,30,17,50,16.20
2018,04,30,17,51,16.20
2018,04,30,17,52,16.20
2018,04,30,17,53,16.20
2018,04,30,17,54,16.20
2018,04,30,17,55,16.20
2018,04,30,17,56,16.20
2018,04,30,17,57,16.20
2018,04,30,17,58,16.20
2018,04,30,17,59,16.20
2018,04,30,18,00,16.20
2018,04,30,18,01,16.20
2018,04,30,18,02,16.20
2018,04,30,18,03,16.20
2018,04,30,18,04,16.20
2018,04,30,18,05,16.20
2018,04,30,18,06,16.20
2018,04,30,18,07,16.20
2018,04,30,18,08,16.20
2018,04,30,18,09,16.10
2018,04,30,18,10,16.10
2018,04,30,18,11,16.10
2018,04,30,18,12,16.00
2018,04,30,18,13,16.00
2018,04,30,18,14,15.90
2018,04,30,18,15,15.90
2018,04,30,18,16,15.90
2018,04,30,18,17,15.80
2018,04,30,18,18,15.80
2018,04,30,18,19,15.80
2018,04,30,18,20,15.70
2018,04,30,18,21,15.70
2018,04,30,18,22,15.70
2018,04,30,18,23,15.70
2018,04,30,18,24,15.60
2018,04,30,18,25,15.60
2018,04,30,18,26,15.60
2018,04,30,18,27,15.60
2018,04,30,18,28,15.60
2018,04,30,18,29,15.60
2018,04,30,18,30,15.60
2018,04,30,18,31,15.60
2018,04,30,18,32,15.60
2018,04,30,18,33,15.60
2018,04,30,18,34,15.60
2018,04,30,18,35,15.60
2018,04,30,18,36,15.60
2018,04,30,18,37,15.60
2018,04,30,18,38,15.60
2018,04,30,18,39,15.60
2018,04,30,18,40,15.60
2018,04,30,18,41,15.60
2018,04,30,18,42,15.70
2018,04,30,18,43,15.70
2018,04,30,18,44,15.80
2018,04,30,18,45,15.80
2018,04,30,18,46,15.80
2018,04,30,18,47,15.80
2018,04,30,18,48,15.80
2018,04,30,18,49,15.80
2018,04,30,18,50,15.80
2018,04,30,18,51,15.80
2018,04,30,18,52,15.80
2018,04,30,18,53,15.80
2018,04,30,18,54,15.80
2018,04,30,18,55,15.80
2018,04,30,18,56,15.80
2018,04,30,18,57,15.80
2018,04,30,18,58,15.80
2018,04,30,18,59,15.70
2018,04,30,19,00,15.70
2018,04,30,19,01,15.70
2018,04,30,19,02,15.60
2018,04,30,19,03,15.60
2018,04,30,19,04,15.60
2018,04,30,19,05,15.50
2018,04,30,19,06,15.50
2018,04,30,19,07,15.40
2018,04,30,19,08,15.40
2018,04,30,19,09,15.30
2018,04,30,19,10,15.30
2018,04,30,19,11,15.20
2018,04,30,19,12,15.20
2018,04,30,19,13,15.20
2018,04,30,19,14,15.10
2018,04,30,19,15,15.10
2018,04,30,19,16,15.10